Precipitable_Water
0.45 0.45 0.46 0.46 0.46 0.46 0.46 0.47 0.48 0.49 0.51 0.53 0.55 0.57 0.60 0.62 0.62 0.63 0.62 0.62 0.64 0.67 0.67 0.64 0.63 0.57 0.57 0.59 0.60 0.61 0.69 0.68 0.69 0.72 0.81 0.85 0.93 1.03 1.08 1.23 1.35 1.51 1.63 1.56 1.51 1.47 1.36 1.47 1.48 1.65 1.66 1.62 1.56 1.55 1.61 1.65 1.61 1.45 1.21 1.11 0.98 1.07 0.96 1.03 1.05 1.10 1.08 1.09 1.11 1.14 1.16 1.12 1.00 1.11 1.10 1.20 1.09 1.02 1.02 1.01 1.09 1.16 1.18 1.30 1.35 1.45 1.46 1.47
0.44 0.45 0.45 0.45 0.44 0.44 0.44 0.45 0.46 0.46 0.46 0.47 0.49 0.49 0.51 0.52 0.55 0.56 0.60 0.61 0.60 0.62 0.62 0.62 0.59 0.58 0.55 0.56 0.59 0.60 0.61 0.60 0.61 0.66 0.80 0.81 0.91 1.04 1.10 1.27 1.37 1.49 1.60 1.45 1.37 1.36 1.33 1.30 1.35 1.46 1.47 1.43 1.52 1.44 1.67 1.47 1.56 1.32 1.18 1.13 0.99 1.06 1.14 1.22 1.17 1.14 1.13 1.13 1.19 1.18 1.21 1.17 1.09 1.15 1.11 1.05 0.95 0.96 0.92 0.94 1.01 0.99 1.12 1.26 1.34 1.38 1.40 1.39
0.45 0.45 0.45 0.44 0.43 0.42 0.42 0.43 0.43 0.44 0.44 0.46 0.47 0.48 0.47 0.47 0.47 0.48 0.50 0.56 0.60 0.61 0.61 0.59 0.60 0.59 0.56 0.56 0.58 0.59 0.55 0.51 0.62 0.63 0.66 0.76 0.93 1.04 1.12 1.26 1.34 1.45 1.56 1.38 1.41 1.38 1.34 1.32 1.34 1.33 1.33 1.30 1.38 1.37 1.51 1.44 1.54 1.33 1.25 1.03 1.09 1.22 1.17 1.27 1.25 1.17 1.29 1.24 1.21 1.19 1.20 1.20 1.16 1.19 1.17 1.08 0.98 1.01 0.95 0.92 0.93 0.92 0.94 1.12 1.24 1.31 1.32 1.37
0.48 0.47 0.46 0.45 0.44 0.43 0.42 0.42 0.42 0.42 0.44 0.45 0.46 0.47 0.48 0.47 0.47 0.46 0.44 0.47 0.53 0.59 0.62 0.65 0.65 0.60 0.60 0.58 0.55 0.63 0.54 0.48 0.46 0.61 0.74 0.81 0.91 1.03 1.11 1.23 1.31 1.40 1.58 1.49 1.44 1.38 1.36 1.32 1.35 1.30 1.21 1.21 1.26 1.41 1.37 1.43 1.47 1.30 1.28 1.13 1.16 1.18 1.15 1.20 1.32 1.31 1.28 1.33 1.25 1.25 1.22 1.17 1.19 1.24 1.18 1.11 1.01 0.98 1.00 1.05 1.02 0.93 0.96 1.07 1.19 1.23 1.28 1.30
0.50 0.49 0.48 0.47 0.45 0.44 0.43 0.42 0.42 0.42 0.42 0.43 0.44 0.45 0.46 0.47 0.47 0.47 0.46 0.43 0.48 0.51 0.57 0.62 0.66 0.66 0.62 0.65 0.61 0.58 0.48 0.38 0.41 0.66 0.86 0.80 0.93 1.01 1.14 1.22 1.33 1.38 1.47 1.44 1.40 1.31 1.24 1.21 1.20 1.20 1.16 1.03 1.16 1.33 1.26 1.42 1.44 1.35 1.30 1.31 1.28 1.16 1.13 1.26 1.39 1.40 1.37 1.33 1.28 1.25 1.21 1.23 1.34 1.29 1.17 1.13 1.06 0.97 1.05 1.07 1.10 1.08 1.07 1.07 1.10 1.19 1.25 1.25
0.51 0.49 0.49 0.49 0.47 0.46 0.44 0.43 0.42 0.42 0.42 0.42 0.43 0.44 0.45 0.46 0.47 0.47 0.46 0.45 0.45 0.48 0.49 0.56 0.64 0.66 0.68 0.69 0.65 0.54 0.43 0.28 0.47 0.68 0.90 0.78 0.90 1.03 1.16 1.27 1.32 1.39 1.39 1.31 1.23 1.14 1.09 1.05 1.14 1.04 0.98 0.97 0.98 1.03 1.14 1.38 1.52 1.24 1.28 1.32 1.31 1.26 1.22 1.30 1.38 1.42 1.44 1.34 1.26 1.25 1.30 1.32 1.26 1.21 1.27 1.26 1.14 1.11 1.21 1.16 1.15 1.16 1.18 1.18 1.20 1.18 1.19 1.22
0.53 0.52 0.50 0.49 0.49 0.48 0.46 0.44 0.43 0.43 0.43 0.43 0.42 0.42 0.42 0.44 0.46 0.47 0.47 0.46 0.45 0.48 0.48 0.49 0.57 0.64 0.67 0.69 0.65 0.43 0.37 0.39 0.47 0.67 0.86 0.83 0.92 1.02 1.23 1.32 1.35 1.30 1.31 1.21 1.14 1.05 0.97 0.93 0.96 0.88 0.94 0.91 0.97 1.04 1.12 1.25 1.42 1.27 1.19 1.28 1.28 1.34 1.28 1.39 1.37 1.43 1.44 1.40 1.33 1.37 1.38 1.30 1.23 1.12 1.30 1.27 1.18 1.31 1.25 1.25 1.24 1.22 1.24 1.25 1.18 1.18 1.19 1.20
0.55 0.55 0.53 0.51 0.49 0.49 0.48 0.47 0.45 0.44 0.44 0.43 0.43 0.42 0.42 0.42 0.44 0.47 0.48 0.48 0.46 0.46 0.50 0.49 0.52 0.57 0.67 0.63 0.45 0.41 0.33 0.33 0.51 0.80 0.73 0.83 0.99 1.11 1.23 1.25 1.21 1.21 1.19 1.13 1.05 0.94 0.87 0.80 0.81 0.89 0.87 0.84 0.92 1.02 1.10 1.27 1.28 1.23 1.19 1.28 1.31 1.37 1.35 1.38 1.40 1.42 1.43 1.41 1.46 1.42 1.33 1.29 1.31 1.29 1.23 1.23 1.33 1.26 1.27 1.30 1.27 1.25 1.22 1.23 1.21 1.19 1.22 1.24
0.56 0.55 0.54 0.53 0.51 0.49 0.48 0.48 0.48 0.46 0.45 0.44 0.43 0.42 0.42 0.42 0.42 0.44 0.47 0.49 0.48 0.47 0.48 0.50 0.50 0.55 0.63 0.54 0.39 0.33 0.33 0.44 0.67 0.79 0.68 0.79 1.04 1.14 1.14 1.08 1.14 1.08 1.07 1.06 1.04 0.95 0.81 0.72 0.75 0.84 0.74 0.78 0.91 0.97 1.10 1.17 1.05 1.21 1.21 1.28 1.29 1.30 1.34 1.36 1.33 1.40 1.42 1.42 1.44 1.35 1.30 1.34 1.36 1.37 1.21 1.26 1.28 1.34 1.38 1.32 1.29 1.26 1.21 1.19 1.20 1.21 1.22 1.24
0.60 0.58 0.56 0.54 0.53 0.50 0.49 0.49 0.49 0.48 0.46 0.45 0.43 0.42 0.42 0.42 0.42 0.43 0.44 0.48 0.49 0.47 0.48 0.50 0.54 0.58 0.51 0.44 0.40 0.31 0.41 0.58 0.71 0.79 0.63 0.76 1.03 1.11 1.08 1.08 1.08 1.03 0.92 0.93 0.95 0.86 0.72 0.69 0.68 0.82 0.86 0.84 0.94 0.99 1.15 1.12 0.96 1.21 1.18 1.22 1.22 1.26 1.30 1.30 1.29 1.31 1.38 1.38 1.39 1.27 1.28 1.32 1.40 1.29 1.13 1.30 1.35 1.37 1.36 1.34 1.33 1.26 1.19 1.18 1.20 1.23 1.26 1.25
0.60 0.59 0.58 0.57 0.54 0.52 0.51 0.50 0.50 0.50 0.48 0.46 0.44 0.43 0.43 0.42 0.43 0.44 0.44 0.45 0.48 0.49 0.50 0.50 0.54 0.51 0.41 0.36 0.32 0.31 0.53 0.62 0.81 0.79 0.74 0.78 0.86 0.97 1.02 1.06 1.03 0.95 0.88 0.88 0.84 0.85 0.79 0.74 0.75 0.82 0.86 0.68 0.90 1.01 1.10 1.07 1.18 1.11 1.14 1.11 1.09 1.16 1.22 1.20 1.22 1.22 1.29 1.25 1.32 1.28 1.23 1.35 1.39 1.28 1.21 1.32 1.40 1.40 1.33 1.32 1.31 1.26 1.22 1.18 1.18 1.20 1.27 1.29
0.58 0.58 0.59 0.58 0.57 0.55 0.53 0.51 0.51 0.51 0.50 0.47 0.44 0.43 0.44 0.44 0.44 0.44 0.43 0.43 0.45 0.51 0.51 0.51 0.52 0.51 0.39 0.37 0.30 0.35 0.50 0.54 0.77 0.81 0.74 0.75 0.72 0.81 0.90 0.93 0.89 0.86 0.80 0.78 0.79 0.83 0.83 0.80 0.74 0.73 0.67 0.77 0.70 0.94 1.00 1.16 1.16 1.05 1.06 1.04 1.02 1.07 1.03 1.10 1.14 1.16 1.17 1.17 1.27 1.28 1.11 1.08 1.18 1.14 1.33 1.38 1.43 1.43 1.35 1.31 1.32 1.27 1.22 1.21 1.19 1.21 1.26 1.31
0.62 0.60 0.58 0.59 0.58 0.58 0.56 0.54 0.53 0.52 0.51 0.49 0.45 0.44 0.45 0.45 0.45 0.45 0.42 0.40 0.43 0.47 0.53 0.54 0.54 0.50 0.39 0.22 0.27 0.46 0.52 0.66 0.74 0.78 0.69 0.67 0.69 0.76 0.81 0.83 0.78 0.76 0.75 0.71 0.71 0.80 0.81 0.79 0.71 0.66 0.74 0.70 0.70 0.78 0.96 1.12 1.03 1.07 1.02 0.98 1.03 1.02 0.96 1.07 1.17 1.17 1.10 1.21 1.24 1.19 0.81 0.91 1.06 1.21 1.33 1.41 1.41 1.42 1.35 1.31 1.33 1.29 1.23 1.21 1.19 1.22 1.27 1.33
0.63 0.62 0.60 0.59 0.59 0.59 0.59 0.57 0.56 0.54 0.52 0.51 0.47 0.47 0.47 0.47 0.47 0.45 0.42 0.41 0.45 0.47 0.53 0.55 0.57 0.45 0.37 0.24 0.37 0.39 0.49 0.67 0.72 0.72 0.69 0.68 0.57 0.58 0.64 0.68 0.70 0.68 0.70 0.73 0.78 0.83 0.80 0.79 0.71 0.70 0.74 0.68 0.80 0.93 1.03 0.97 0.93 0.89 0.97 0.99 0.80 0.84 0.73 0.96 1.05 1.09 1.03 1.22 1.21 1.19 0.88 0.94 1.08 1.23 1.35 1.40 1.41 1.37 1.32 1.32 1.33 1.31 1.26 1.21 1.20 1.23 1.26 1.30
0.65 0.64 0.63 0.61 0.60 0.59 0.60 0.60 0.58 0.56 0.55 0.52 0.48 0.49 0.51 0.48 0.46 0.44 0.44 0.44 0.49 0.53 0.53 0.58 0.54 0.41 0.26 0.23 0.37 0.45 0.47 0.59 0.57 0.63 0.71 0.63 0.57 0.55 0.56 0.60 0.57 0.60 0.60 0.69 0.77 0.84 0.82 0.77 0.70 0.65 0.62 0.71 0.79 0.86 0.86 0.81 0.83 0.82 0.85 0.71 0.73 0.68 0.73 0.90 0.98 0.93 0.94 1.13 1.20 1.08 0.87 0.93 1.07 1.20 1.33 1.40 1.41 1.37 1.33 1.31 1.32 1.31 1.28 1.24 1.22 1.22 1.26 1.29
0.64 0.65 0.65 0.63 0.61 0.60 0.59 0.60 0.60 0.59 0.57 0.55 0.50 0.52 0.54 0.54 0.47 0.46 0.49 0.50 0.53 0.58 0.62 0.48 0.46 0.38 0.30 0.22 0.40 0.52 0.40 0.32 0.44 0.63 0.68 0.66 0.60 0.51 0.60 0.56 0.59 0.55 0.52 0.58 0.74 0.81 0.81 0.74 0.61 0.62 0.63 0.72 0.71 0.72 0.67 0.63 0.74 0.76 0.69 0.62 0.61 0.63 0.62 0.82 0.79 0.92 1.00 1.03 1.07 0.97 0.88 0.93 1.04 1.19 1.29 1.38 1.38 1.36 1.33 1.32 1.32 1.33 1.31 1.28 1.27 1.25 1.26 1.29
0.63 0.64 0.64 0.64 0.63 0.62 0.60 0.59 0.61 0.62 0.61 0.58 0.55 0.56 0.59 0.56 0.52 0.49 0.50 0.52 0.54 0.61 0.57 0.49 0.48 0.44 0.23 0.36 0.54 0.31 0.26 0.32 0.48 0.56 0.60 0.60 0.56 0.56 0.56 0.53 0.48 0.49 0.50 0.52 0.63 0.69 0.69 0.62 0.60 0.58 0.60 0.59 0.73 0.68 0.55 0.54 0.55 0.60 0.60 0.57 0.61 0.58 0.58 0.58 0.79 0.97 0.95 0.92 0.90 0.99 0.86 0.89 1.05 1.13 1.23 1.32 1.36 1.32 1.29 1.31 1.32 1.34 1.35 1.34 1.32 1.30 1.28 1.27
0.65 0.63 0.63 0.64 0.64 0.63 0.62 0.60 0.60 0.62 0.63 0.62 0.58 0.57 0.58 0.60 0.59 0.52 0.48 0.53 0.57 0.55 0.54 0.59 0.55 0.43 0.26 0.31 0.20 0.24 0.32 0.34 0.39 0.50 0.57 0.58 0.57 0.57 0.54 0.46 0.47 0.46 0.44 0.43 0.55 0.54 0.60 0.53 0.53 0.47 0.46 0.51 0.60 0.56 0.48 0.45 0.51 0.50 0.52 0.50 0.49 0.51 0.60 0.58 0.56 0.78 0.83 0.85 0.79 0.93 0.88 0.91 1.03 1.11 1.16 1.23 1.31 1.33 1.29 1.30 1.32 1.35 1.35 1.36 1.35 1.33 1.30 1.26
0.69 0.66 0.63 0.63 0.63 0.64 0.63 0.63 0.61 0.60 0.63 0.65 0.65 0.67 0.66 0.64 0.61 0.55 0.42 0.41 0.34 0.28 0.23 0.26 0.31 0.20 0.20 0.27 0.29 0.32 0.31 0.40 0.44 0.49 0.50 0.54 0.55 0.57 0.58 0.54 0.48 0.43 0.38 0.38 0.45 0.46 0.52 0.49 0.46 0.42 0.38 0.43 0.48 0.54 0.57 0.54 0.54 0.49 0.48 0.46 0.46 0.44 0.46 0.48 0.52 0.75 0.73 0.79 0.81 0.77 0.80 0.86 0.96 1.05 1.13 1.20 1.24 1.22 1.25 1.32 1.36 1.37 1.37 1.37 1.37 1.36 1.33 1.30
0.73 0.72 0.68 0.65 0.64 0.65 0.64 0.64 0.64 0.62 0.63 0.61 0.61 0.62 0.55 0.36 0.38 0.31 0.38 0.34 0.24 0.23 0.31 0.36 0.32 0.34 0.28 0.27 0.28 0.39 0.43 0.40 0.38 0.47 0.55 0.57 0.57 0.54 0.56 0.53 0.48 0.46 0.42 0.34 0.41 0.40 0.47 0.37 0.34 0.32 0.37 0.43 0.47 0.51 0.52 0.52 0.51 0.49 0.49 0.47 0.45 0.44 0.46 0.56 0.58 0.63 0.81 0.69 0.72 0.75 0.79 0.81 0.86 0.95 1.07 1.15 1.20 1.17 1.18 1.19 1.25 1.30 1.32 1.34 1.36 1.36 1.36 1.34
0.78 0.76 0.74 0.70 0.68 0.66 0.66 0.66 0.65 0.64 0.66 0.58 0.55 0.50 0.35 0.30 0.21 0.19 0.31 0.28 0.25 0.24 0.22 0.28 0.31 0.30 0.30 0.32 0.31 0.37 0.30 0.30 0.43 0.47 0.51 0.64 0.58 0.52 0.47 0.47 0.42 0.37 0.38 0.39 0.37 0.41 0.39 0.32 0.33 0.37 0.40 0.42 0.44 0.47 0.50 0.50 0.49 0.47 0.45 0.42 0.41 0.43 0.41 0.48 0.49 0.68 0.72 0.68 0.71 0.72 0.69 0.74 0.80 0.89 0.98 1.09 1.12 1.07 1.10 1.14 1.19 1.24 1.26 1.30 1.35 1.35 1.36 1.37
0.82 0.80 0.79 0.77 0.73 0.70 0.68 0.67 0.66 0.66 0.65 0.60 0.50 0.43 0.41 0.40 0.41 0.40 0.32 0.21 0.29 0.29 0.25 0.23 0.27 0.26 0.36 0.37 0.39 0.41 0.36 0.33 0.31 0.44 0.52 0.57 0.49 0.39 0.44 0.41 0.39 0.33 0.39 0.38 0.35 0.30 0.29 0.27 0.33 0.38 0.40 0.41 0.42 0.44 0.46 0.47 0.46 0.47 0.43 0.42 0.40 0.41 0.43 0.52 0.56 0.56 0.70 0.61 0.63 0.71 0.61 0.68 0.78 0.83 0.94 0.98 1.02 1.10 1.14 1.15 1.18 1.22 1.25 1.26 1.31 1.36 1.38 1.35
0.86 0.84 0.83 0.82 0.78 0.74 0.70 0.69 0.67 0.66 0.63 0.55 0.48 0.42 0.42 0.50 0.49 0.51 0.41 0.30 0.23 0.27 0.27 0.26 0.23 0.20 0.25 0.34 0.38 0.41 0.32 0.30 0.30 0.37 0.45 0.47 0.45 0.39 0.45 0.35 0.36 0.37 0.40 0.37 0.29 0.27 0.23 0.26 0.33 0.36 0.36 0.37 0.39 0.40 0.40 0.42 0.43 0.41 0.40 0.40 0.37 0.41 0.37 0.32 0.63 0.61 0.62 0.58 0.64 0.60 0.56 0.64 0.74 0.80 0.86 0.96 0.96 1.01 1.13 1.17 1.19 1.23 1.24 1.26 1.29 1.34 1.37 1.35
0.91 0.90 0.87 0.86 0.85 0.80 0.74 0.70 0.67 0.64 0.57 0.52 0.47 0.44 0.53 0.53 0.52 0.49 0.39 0.27 0.23 0.29 0.28 0.28 0.26 0.23 0.20 0.25 0.34 0.36 0.32 0.35 0.36 0.35 0.48 0.44 0.38 0.43 0.41 0.38 0.34 0.34 0.34 0.35 0.31 0.28 0.26 0.30 0.33 0.33 0.33 0.34 0.35 0.36 0.37 0.38 0.37 0.39 0.39 0.39 0.37 0.36 0.36 0.34 0.45 0.54 0.56 0.65 0.61 0.57 0.55 0.51 0.61 0.64 0.73 0.82 0.94 0.94 1.03 1.12 1.17 1.22 1.27 1.32 1.35 1.37 1.41 1.37
0.93 0.94 0.92 0.89 0.88 0.88 0.78 0.70 0.58 0.55 0.57 0.55 0.52 0.54 0.53 0.55 0.55 0.53 0.39 0.31 0.29 0.27 0.36 0.31 0.30 0.27 0.28 0.37 0.38 0.31 0.34 0.38 0.38 0.44 0.47 0.44 0.41 0.41 0.37 0.43 0.37 0.31 0.32 0.34 0.32 0.29 0.30 0.31 0.32 0.30 0.31 0.33 0.34 0.33 0.35 0.36 0.34 0.36 0.40 0.40 0.38 0.35 0.32 0.36 0.48 0.41 0.45 0.60 0.64 0.53 0.39 0.41 0.51 0.56 0.55 0.88 0.83 0.81 0.95 0.97 1.02 1.11 1.20 1.26 1.28 1.32 1.38 1.43
0.94 0.94 0.95 0.95 0.93 0.91 0.87 0.61 0.56 0.58 0.56 0.52 0.54 0.55 0.54 0.55 0.58 0.56 0.42 0.26 0.19 0.25 0.27 0.20 0.30 0.22 0.33 0.24 0.32 0.33 0.37 0.30 0.40 0.42 0.46 0.47 0.52 0.41 0.42 0.38 0.36 0.31 0.33 0.32 0.31 0.31 0.31 0.33 0.30 0.29 0.29 0.31 0.32 0.32 0.34 0.36 0.32 0.32 0.32 0.39 0.36 0.33 0.30 0.35 0.43 0.37 0.36 0.34 0.56 0.61 0.36 0.36 0.50 0.48 0.58 0.64 0.71 0.76 0.88 0.88 0.95 1.06 1.13 1.20 1.24 1.30 1.32 1.38
0.96 0.95 0.95 0.97 0.98 0.98 0.77 0.57 0.67 0.60 0.50 0.53 0.62 0.60 0.57 0.57 0.65 0.55 0.32 0.23 0.18 0.25 0.21 0.29 0.24 0.31 0.29 0.27 0.28 0.34 0.20 0.25 0.40 0.43 0.44 0.51 0.45 0.48 0.36 0.34 0.34 0.32 0.36 0.36 0.29 0.26 0.30 0.30 0.28 0.29 0.29 0.29 0.30 0.29 0.34 0.35 0.31 0.30 0.38 0.36 0.34 0.31 0.28 0.33 0.37 0.35 0.38 0.43 0.51 0.49 0.48 0.36 0.36 0.44 0.56 0.55 0.55 0.66 0.78 0.85 0.91 1.01 1.09 1.13 1.21 1.27 1.31 1.36
0.96 0.94 0.93 0.93 0.97 0.98 0.83 0.78 0.65 0.53 0.53 0.61 0.66 0.61 0.63 0.65 0.65 0.58 0.33 0.16 0.16 0.28 0.24 0.25 0.26 0.39 0.32 0.30 0.30 0.25 0.30 0.37 0.28 0.36 0.45 0.51 0.48 0.42 0.33 0.33 0.29 0.27 0.29 0.28 0.19 0.27 0.28 0.26 0.26 0.27 0.27 0.27 0.28 0.32 0.32 0.34 0.31 0.32 0.36 0.35 0.35 0.32 0.33 0.33 0.35 0.37 0.40 0.33 0.29 0.53 0.53 0.33 0.38 0.45 0.53 0.53 0.49 0.58 0.66 0.78 0.91 0.97 1.05 1.12 1.16 1.23 1.28 1.33
0.96 0.95 0.92 0.91 0.93 0.96 0.94 0.78 0.69 0.57 0.66 0.70 0.67 0.61 0.62 0.70 0.61 0.44 0.33 0.21 0.30 0.26 0.39 0.26 0.38 0.30 0.30 0.31 0.26 0.26 0.29 0.35 0.29 0.38 0.45 0.50 0.50 0.44 0.30 0.34 0.33 0.31 0.32 0.27 0.22 0.27 0.27 0.27 0.28 0.27 0.26 0.25 0.30 0.33 0.33 0.32 0.29 0.38 0.40 0.36 0.39 0.39 0.33 0.37 0.35 0.36 0.39 0.30 0.24 0.39 0.54 0.30 0.30 0.40 0.47 0.61 0.50 0.51 0.64 0.77 0.87 0.97 1.02 1.06 1.10 1.17 1.22 1.29
0.97 0.95 0.93 0.90 0.88 0.86 0.79 0.80 0.70 0.76 0.72 0.70 0.67 0.63 0.62 0.59 0.49 0.34 0.27 0.22 0.34 0.26 0.32 0.32 0.28 0.24 0.29 0.23 0.22 0.26 0.26 0.31 0.34 0.39 0.43 0.40 0.44 0.42 0.39 0.39 0.34 0.31 0.28 0.28 0.25 0.27 0.29 0.30 0.30 0.26 0.25 0.28 0.31 0.31 0.33 0.32 0.33 0.37 0.41 0.42 0.39 0.38 0.38 0.34 0.38 0.36 0.34 0.25 0.27 0.41 0.46 0.37 0.25 0.34 0.40 0.48 0.58 0.59 0.67 0.76 0.87 0.90 1.01 1.08 1.10 1.13 1.17 1.21
0.96 0.95 0.92 0.93 0.76 0.74 0.69 0.61 0.70 0.78 0.77 0.71 0.64 0.58 0.54 0.48 0.36 0.30 0.24 0.32 0.36 0.35 0.38 0.33 0.30 0.32 0.26 0.23 0.19 0.25 0.27 0.30 0.32 0.36 0.36 0.41 0.39 0.39 0.37 0.34 0.35 0.30 0.28 0.26 0.23 0.23 0.25 0.26 0.23 0.25 0.27 0.29 0.29 0.28 0.32 0.32 0.36 0.34 0.36 0.35 0.37 0.36 0.38 0.36 0.40 0.35 0.25 0.24 0.39 0.39 0.41 0.43 0.24 0.32 0.46 0.54 0.63 0.67 0.67 0.69 0.76 0.82 0.97 1.01 1.07 1.11 1.14 1.19
0.93 0.94 0.94 0.90 0.86 0.80 0.58 0.55 0.67 0.78 0.75 0.68 0.62 0.49 0.43 0.30 0.34 0.25 0.27 0.42 0.28 0.34 0.33 0.32 0.34 0.32 0.30 0.28 0.23 0.23 0.24 0.28 0.33 0.33 0.33 0.33 0.33 0.31 0.29 0.26 0.27 0.22 0.21 0.21 0.19 0.22 0.20 0.21 0.23 0.25 0.28 0.27 0.27 0.27 0.28 0.30 0.33 0.31 0.36 0.35 0.27 0.36 0.34 0.30 0.35 0.28 0.27 0.25 0.46 0.45 0.40 0.32 0.38 0.43 0.48 0.58 0.66 0.68 0.74 0.72 0.74 0.81 0.88 0.98 1.02 1.05 1.11 1.16
0.89 0.91 0.94 0.90 0.88 0.77 0.71 0.70 0.72 0.73 0.74 0.67 0.56 0.47 0.33 0.27 0.22 0.28 0.29 0.32 0.28 0.34 0.33 0.37 0.35 0.34 0.33 0.29 0.25 0.26 0.28 0.26 0.34 0.34 0.36 0.36 0.32 0.31 0.32 0.29 0.31 0.25 0.22 0.24 0.20 0.19 0.18 0.22 0.22 0.23 0.27 0.29 0.29 0.24 0.25 0.25 0.29 0.29 0.30 0.30 0.24 0.20 0.24 0.21 0.23 0.30 0.30 0.33 0.40 0.37 0.45 0.27 0.36 0.41 0.56 0.63 0.70 0.71 0.73 0.77 0.80 0.83 0.85 0.90 0.97 1.03 1.07 1.13
0.84 0.87 0.84 0.91 0.91 0.86 0.85 0.80 0.73 0.74 0.70 0.60 0.51 0.40 0.33 0.25 0.23 0.41 0.31 0.31 0.31 0.36 0.37 0.38 0.38 0.37 0.35 0.30 0.28 0.29 0.26 0.33 0.34 0.34 0.36 0.35 0.31 0.29 0.31 0.31 0.32 0.28 0.26 0.26 0.18 0.19 0.16 0.16 0.19 0.22 0.21 0.28 0.28 0.27 0.27 0.27 0.29 0.29 0.34 0.31 0.27 0.24 0.22 0.21 0.21 0.20 0.26 0.32 0.45 0.52 0.26 0.30 0.32 0.57 0.64 0.70 0.72 0.75 0.80 0.82 0.85 0.82 0.85 0.88 0.94 1.04 1.10 1.12
0.84 0.83 0.84 0.91 0.92 0.95 0.93 0.84 0.73 0.73 0.68 0.52 0.44 0.35 0.26 0.25 0.27 0.27 0.29 0.34 0.37 0.35 0.35 0.39 0.35 0.35 0.34 0.33 0.31 0.31 0.31 0.30 0.35 0.35 0.34 0.34 0.29 0.29 0.30 0.30 0.31 0.31 0.28 0.21 0.22 0.21 0.18 0.21 0.25 0.24 0.27 0.28 0.26 0.29 0.30 0.27 0.27 0.31 0.32 0.33 0.27 0.25 0.28 0.20 0.28 0.28 0.26 0.24 0.27 0.38 0.26 0.36 0.35 0.62 0.65 0.69 0.73 0.78 0.80 0.78 0.82 0.83 0.87 0.93 0.93 0.95 1.03 1.12
0.80 0.76 0.85 0.82 0.85 0.92 0.95 0.83 0.73 0.71 0.61 0.47 0.38 0.31 0.28 0.31 0.29 0.31 0.32 0.38 0.37 0.33 0.35 0.36 0.35 0.33 0.34 0.33 0.34 0.31 0.33 0.33 0.36 0.35 0.34 0.33 0.33 0.29 0.33 0.34 0.32 0.31 0.28 0.22 0.26 0.17 0.19 0.18 0.25 0.26 0.27 0.27 0.28 0.30 0.29 0.29 0.20 0.27 0.27 0.23 0.25 0.29 0.26 0.25 0.25 0.23 0.19 0.17 0.17 0.29 0.32 0.33 0.42 0.51 0.63 0.72 0.71 0.74 0.76 0.76 0.77 0.79 0.82 0.85 0.90 0.97 1.02 1.11
0.70 0.72 0.73 0.80 0.81 0.86 0.86 0.79 0.72 0.66 0.56 0.46 0.36 0.30 0.35 0.36 0.35 0.33 0.36 0.33 0.34 0.36 0.35 0.29 0.31 0.31 0.31 0.32 0.33 0.31 0.33 0.37 0.38 0.34 0.31 0.35 0.31 0.33 0.33 0.35 0.38 0.35 0.31 0.27 0.26 0.26 0.21 0.19 0.24 0.24 0.23 0.27 0.29 0.29 0.29 0.28 0.27 0.30 0.22 0.25 0.31 0.31 0.29 0.25 0.21 0.34 0.26 0.20 0.28 0.32 0.25 0.26 0.37 0.36 0.61 0.67 0.66 0.68 0.72 0.74 0.74 0.76 0.77 0.80 0.90 0.96 1.03 1.09
0.67 0.65 0.71 0.68 0.74 0.81 0.79 0.76 0.68 0.59 0.49 0.41 0.34 0.35 0.47 0.36 0.39 0.38 0.39 0.36 0.36 0.36 0.33 0.32 0.32 0.34 0.32 0.33 0.33 0.32 0.34 0.32 0.34 0.34 0.32 0.34 0.30 0.37 0.35 0.35 0.38 0.35 0.35 0.33 0.27 0.28 0.24 0.20 0.22 0.24 0.24 0.26 0.28 0.28 0.26 0.28 0.30 0.26 0.26 0.34 0.23 0.25 0.18 0.21 0.19 0.16 0.21 0.23 0.25 0.27 0.29 0.33 0.42 0.42 0.49 0.54 0.62 0.67 0.69 0.69 0.72 0.74 0.77 0.79 0.86 0.96 1.05 1.12
0.68 0.63 0.60 0.67 0.81 0.80 0.80 0.78 0.65 0.51 0.41 0.35 0.34 0.34 0.41 0.43 0.46 0.41 0.41 0.39 0.37 0.35 0.31 0.33 0.31 0.34 0.35 0.33 0.36 0.36 0.35 0.30 0.35 0.34 0.31 0.33 0.29 0.36 0.34 0.35 0.34 0.35 0.35 0.35 0.27 0.29 0.27 0.20 0.22 0.24 0.22 0.24 0.24 0.23 0.20 0.22 0.27 0.29 0.32 0.29 0.27 0.27 0.28 0.29 0.28 0.23 0.25 0.25 0.25 0.29 0.34 0.32 0.44 0.47 0.50 0.54 0.62 0.68 0.68 0.68 0.70 0.71 0.75 0.79 0.84 0.97 1.04 1.09
0.58 0.53 0.52 0.76 0.81 0.81 0.82 0.74 0.60 0.43 0.36 0.30 0.34 0.36 0.44 0.41 0.44 0.45 0.44 0.42 0.36 0.34 0.33 0.33 0.36 0.32 0.34 0.35 0.38 0.36 0.37 0.35 0.33 0.34 0.33 0.36 0.32 0.39 0.35 0.37 0.34 0.34 0.35 0.35 0.30 0.30 0.27 0.24 0.23 0.24 0.24 0.23 0.19 0.21 0.20 0.23 0.23 0.24 0.24 0.24 0.26 0.24 0.30 0.33 0.38 0.30 0.28 0.29 0.30 0.31 0.30 0.38 0.49 0.52 0.56 0.60 0.61 0.67 0.68 0.67 0.70 0.74 0.76 0.79 0.85 0.96 1.05 1.12
0.62 0.51 0.56 0.78 0.77 0.82 0.77 0.60 0.47 0.36 0.34 0.36 0.38 0.37 0.38 0.38 0.42 0.46 0.47 0.48 0.43 0.44 0.36 0.34 0.34 0.32 0.34 0.34 0.34 0.39 0.38 0.36 0.36 0.34 0.34 0.35 0.34 0.31 0.37 0.37 0.36 0.34 0.35 0.33 0.30 0.30 0.27 0.27 0.24 0.25 0.21 0.20 0.22 0.25 0.24 0.24 0.26 0.26 0.23 0.23 0.25 0.23 0.24 0.20 0.23 0.35 0.32 0.33 0.35 0.35 0.33 0.43 0.46 0.59 0.63 0.68 0.69 0.66 0.73 0.71 0.72 0.75 0.78 0.79 0.86 0.97 1.07 1.13
0.53 0.41 0.50 0.73 0.72 0.74 0.62 0.46 0.42 0.43 0.38 0.34 0.32 0.34 0.35 0.45 0.40 0.42 0.47 0.50 0.46 0.42 0.47 0.41 0.40 0.37 0.35 0.34 0.35 0.36 0.37 0.38 0.37 0.36 0.37 0.34 0.37 0.36 0.40 0.40 0.38 0.37 0.33 0.30 0.28 0.30 0.29 0.30 0.26 0.25 0.23 0.23 0.24 0.26 0.28 0.27 0.28 0.29 0.27 0.25 0.28 0.28 0.28 0.25 0.22 0.35 0.36 0.36 0.41 0.44 0.39 0.43 0.61 0.61 0.63 0.68 0.66 0.69 0.68 0.73 0.72 0.74 0.78 0.84 0.87 0.98 1.08 1.18
0.50 0.46 0.66 0.72 0.77 0.67 0.56 0.43 0.45 0.42 0.37 0.40 0.45 0.41 0.46 0.43 0.42 0.49 0.43 0.47 0.44 0.46 0.43 0.41 0.40 0.40 0.40 0.37 0.37 0.36 0.37 0.36 0.39 0.37 0.37 0.37 0.37 0.40 0.41 0.40 0.39 0.37 0.36 0.34 0.32 0.33 0.32 0.29 0.26 0.27 0.30 0.30 0.30 0.30 0.31 0.30 0.29 0.26 0.28 0.32 0.29 0.27 0.28 0.29 0.32 0.39 0.39 0.42 0.37 0.41 0.32 0.39 0.57 0.62 0.65 0.66 0.68 0.70 0.70 0.73 0.73 0.74 0.79 0.84 0.86 0.94 1.04 1.10
0.52 0.51 0.57 0.72 0.78 0.71 0.51 0.39 0.39 0.40 0.39 0.50 0.49 0.52 0.57 0.52 0.51 0.47 0.44 0.48 0.44 0.45 0.41 0.40 0.41 0.43 0.42 0.44 0.40 0.36 0.39 0.32 0.38 0.40 0.39 0.39 0.37 0.42 0.42 0.40 0.40 0.37 0.36 0.36 0.31 0.36 0.27 0.29 0.28 0.26 0.26 0.28 0.27 0.28 0.28 0.30 0.29 0.25 0.25 0.27 0.33 0.31 0.30 0.32 0.40 0.45 0.38 0.41 0.40 0.38 0.31 0.37 0.52 0.58 0.65 0.67 0.66 0.64 0.66 0.70 0.78 0.74 0.75 0.80 0.84 0.91 1.01 1.09
0.54 0.58 0.59 0.67 0.74 0.68 0.47 0.52 0.50 0.48 0.48 0.47 0.49 0.47 0.49 0.51 0.54 0.53 0.52 0.50 0.52 0.49 0.47 0.43 0.43 0.45 0.43 0.45 0.41 0.41 0.42 0.38 0.38 0.40 0.41 0.39 0.38 0.42 0.42 0.40 0.40 0.38 0.39 0.42 0.43 0.38 0.28 0.31 0.26 0.24 0.22 0.21 0.20 0.20 0.22 0.24 0.25 0.26 0.26 0.27 0.28 0.27 0.29 0.33 0.31 0.39 0.33 0.41 0.40 0.36 0.33 0.42 0.47 0.57 0.60 0.63 0.62 0.64 0.67 0.71 0.74 0.81 0.77 0.78 0.80 0.86 0.94 1.01
0.51 0.44 0.54 0.57 0.63 0.63 0.59 0.61 0.56 0.50 0.48 0.47 0.44 0.49 0.50 0.46 0.52 0.55 0.54 0.51 0.53 0.53 0.50 0.49 0.50 0.47 0.43 0.44 0.41 0.39 0.39 0.42 0.38 0.39 0.39 0.38 0.39 0.40 0.40 0.40 0.40 0.39 0.40 0.41 0.40 0.35 0.29 0.35 0.32 0.28 0.28 0.26 0.27 0.29 0.36 0.31 0.27 0.24 0.27 0.30 0.29 0.30 0.34 0.32 0.35 0.38 0.34 0.44 0.38 0.38 0.36 0.39 0.44 0.47 0.58 0.58 0.61 0.58 0.63 0.67 0.65 0.69 0.77 0.82 0.84 0.86 0.89 0.94
0.57 0.47 0.47 0.46 0.54 0.58 0.54 0.57 0.54 0.53 0.47 0.50 0.41 0.48 0.44 0.47 0.51 0.51 0.56 0.48 0.54 0.52 0.51 0.49 0.49 0.42 0.43 0.41 0.40 0.40 0.41 0.40 0.41 0.40 0.39 0.39 0.40 0.41 0.41 0.40 0.40 0.40 0.45 0.39 0.40 0.36 0.33 0.30 0.31 0.30 0.30 0.32 0.31 0.38 0.35 0.32 0.28 0.27 0.28 0.28 0.30 0.29 0.32 0.32 0.32 0.35 0.40 0.40 0.33 0.38 0.47 0.37 0.38 0.42 0.51 0.64 0.61 0.62 0.63 0.66 0.68 0.70 0.74 0.78 0.83 0.87 0.88 0.93
0.46 0.52 0.57 0.59 0.47 0.45 0.48 0.49 0.55 0.53 0.53 0.51 0.47 0.50 0.45 0.46 0.48 0.45 0.54 0.54 0.55 0.57 0.48 0.47 0.49 0.52 0.49 0.45 0.47 0.40 0.40 0.40 0.41 0.37 0.38 0.39 0.43 0.44 0.40 0.41 0.39 0.44 0.43 0.41 0.41 0.36 0.33 0.27 0.30 0.28 0.29 0.30 0.33 0.34 0.35 0.31 0.30 0.29 0.28 0.29 0.29 0.30 0.31 0.30 0.32 0.35 0.41 0.36 0.31 0.37 0.39 0.38 0.39 0.40 0.46 0.59 0.65 0.61 0.63 0.67 0.72 0.77 0.78 0.83 0.83 0.83 0.83 0.88
0.53 0.55 0.56 0.62 0.49 0.52 0.50 0.54 0.55 0.53 0.50 0.51 0.51 0.49 0.46 0.46 0.46 0.52 0.49 0.52 0.52 0.53 0.52 0.46 0.51 0.52 0.51 0.50 0.46 0.41 0.47 0.38 0.36 0.40 0.39 0.39 0.40 0.43 0.39 0.41 0.45 0.48 0.43 0.47 0.45 0.41 0.37 0.31 0.32 0.31 0.28 0.29 0.30 0.32 0.33 0.30 0.30 0.30 0.31 0.30 0.31 0.32 0.32 0.31 0.33 0.34 0.37 0.37 0.36 0.37 0.40 0.40 0.42 0.41 0.43 0.54 0.62 0.65 0.71 0.78 0.80 0.77 0.75 0.78 0.82 0.81 0.83 0.86
0.45 0.46 0.45 0.56 0.55 0.51 0.56 0.54 0.52 0.50 0.45 0.53 0.43 0.49 0.49 0.48 0.47 0.51 0.55 0.51 0.48 0.51 0.56 0.49 0.50 0.54 0.54 0.52 0.48 0.44 0.52 0.49 0.51 0.46 0.51 0.42 0.41 0.43 0.43 0.40 0.41 0.43 0.48 0.50 0.48 0.49 0.37 0.35 0.35 0.34 0.28 0.28 0.30 0.31 0.31 0.30 0.31 0.30 0.30 0.31 0.31 0.33 0.33 0.33 0.33 0.34 0.37 0.36 0.42 0.42 0.41 0.42 0.53 0.55 0.58 0.74 0.74 0.75 0.73 0.66 0.69 0.77 0.78 0.77 0.77 0.79 0.80 0.84
0.61 0.65 0.64 0.51 0.47 0.51 0.52 0.51 0.49 0.49 0.45 0.50 0.44 0.50 0.49 0.52 0.50 0.54 0.52 0.59 0.53 0.51 0.53 0.49 0.54 0.55 0.59 0.56 0.55 0.53 0.58 0.56 0.54 0.52 0.52 0.50 0.43 0.51 0.47 0.47 0.52 0.44 0.41 0.45 0.44 0.46 0.40 0.42 0.42 0.34 0.28 0.26 0.29 0.30 0.29 0.30 0.30 0.31 0.31 0.31 0.31 0.31 0.30 0.31 0.30 0.35 0.36 0.36 0.39 0.40 0.35 0.38 0.51 0.52 0.55 0.62 0.63 0.60 0.59 0.63 0.71 0.77 0.80 0.78 0.77 0.77 0.78 0.82
0.68 0.71 0.70 0.62 0.46 0.54 0.47 0.50 0.49 0.45 0.41 0.52 0.51 0.51 0.48 0.51 0.55 0.57 0.50 0.60 0.61 0.60 0.59 0.57 0.57 0.56 0.57 0.58 0.56 0.55 0.59 0.61 0.61 0.60 0.58 0.58 0.58 0.55 0.55 0.55 0.51 0.48 0.46 0.41 0.45 0.42 0.39 0.38 0.34 0.33 0.27 0.27 0.31 0.31 0.29 0.30 0.30 0.28 0.29 0.31 0.32 0.31 0.32 0.34 0.35 0.37 0.38 0.39 0.42 0.37 0.37 0.42 0.51 0.54 0.49 0.55 0.58 0.61 0.63 0.66 0.71 0.79 0.81 0.79 0.78 0.75 0.80 0.83
Wind_Speed
6 6 5 5 5 4 4 4 4 4 4 5 5 5 5 5 5 4 4 4 4 4 3 4 4 4 3 3 3 2 2 2 2 3 4 3 2 3 4 5 5 5 5 5 5 4 4 3 2 2 2 2 2 2 2 3 4 6 6 5 5 5 6 5 5 5 5 6 6 6 5 5 6 6 6 6 6 7 7 6 6 6 6 8 10 12 13 12
6 6 6 5 5 5 5 5 5 5 5 5 5 5 5 5 5 5 4 4 3 3 3 3 3 4 3 3 3 3 2 2 3 4 4 3 3 4 5 6 6 5 5 5 5 3 3 2 2 2 1 2 2 2 2 3 4 5 5 5 5 5 6 5 5 5 5 6 6 6 5 5 6 6 6 6 7 7 7 7 7 7 8 10 11 12 12 12
5 5 5 5 5 5 5 5 5 5 5 5 5 6 6 6 5 5 4 4 3 3 3 3 3 3 3 3 3 3 2 2 3 4 3 4 5 5 5 6 6 6 5 4 4 3 1 1 2 1 1 2 3 2 2 3 4 5 6 5 6 6 6 6 5 5 5 5 6 6 5 5 6 6 5 5 6 6 5 6 6 7 9 10 11 12 12 12
5 5 5 5 5 5 5 5 5 5 5 5 5 5 6 6 6 5 5 4 4 3 3 3 3 3 3 3 3 2 2 3 2 1 2 4 6 6 6 6 7 7 6 4 3 2 1 0 1 1 1 2 3 3 3 2 3 5 6 5 7 7 6 6 5 5 4 4 4 5 6 6 5 4 5 5 5 4 4 5 6 7 9 10 11 12 12 12
5 5 5 5 5 5 5 5 5 6 5 5 6 6 6 6 6 5 5 5 4 4 3 3 3 3 3 3 3 2 2 2 1 1 2 5 6 6 6 6 7 7 6 4 3 3 2 1 1 1 1 3 3 3 3 3 3 5 6 6 7 7 6 6 5 5 4 4 4 5 5 5 5 3 3 4 4 5 4 5 6 7 9 10 11 11 11 11
6 5 5 5 5 6 6 6 6 6 6 6 6 6 6 6 5 5 5 5 5 4 4 4 3 3 3 3 3 2 2 2 1 1 3 5 6 6 6 7 8 7 6 5 4 3 2 1 1 0 1 3 3 3 4 3 3 4 6 7 6 6 5 5 5 4 4 4 5 4 3 3 4 3 3 3 3 4 5 5 6 7 9 10 11 10 10 10
6 6 6 6 6 6 6 6 6 6 7 7 7 6 6 6 6 6 5 5 5 5 4 4 4 3 3 3 3 2 3 2 2 2 4 6 6 6 7 8 8 7 6 6 5 4 2 1 1 0 1 3 3 4 4 4 4 4 5 5 6 5 5 5 5 4 4 4 5 4 3 3 3 3 3 3 3 3 4 6 6 7 9 10 10 10 10 10
7 7 7 7 7 7 7 7 7 7 7 7 7 7 7 7 6 6 6 6 5 5 5 4 4 4 3 3 3 3 4 2 2 1 4 6 7 7 8 8 8 7 7 6 5 4 2 2 1 0 1 3 3 3 4 4 4 4 4 5 5 5 5 5 4 4 4 4 5 4 4 3 3 2 3 4 5 4 4 6 6 7 8 9 9 10 9 9
7 8 8 7 7 8 8 8 8 8 8 8 8 8 8 7 7 6 6 6 6 5 5 5 4 4 4 4 4 4 3 2 2 2 4 7 8 8 8 7 8 7 7 6 5 4 3 2 1 1 1 2 2 3 3 3 4 4 4 5 5 5 5 5 4 4 4 4 4 4 4 4 4 3 3 4 5 5 5 6 7 7 8 8 8 9 9 8
8 8 8 8 8 8 8 8 9 9 9 9 9 9 9 8 7 7 7 6 6 6 5 5 4 4 4 4 5 5 3 3 3 2 4 7 9 9 9 8 8 8 7 6 6 6 4 2 1 1 2 2 2 3 3 2 3 3 4 5 5 5 5 4 4 5 4 4 4 4 4 4 4 4 3 3 4 5 5 6 7 7 7 7 8 8 8 8
9 9 9 9 9 9 9 9 9 9 10 10 10 10 9 9 8 8 7 7 6 6 5 5 4 4 5 6 6 5 3 3 3 3 4 7 9 10 9 9 9 8 7 7 7 6 5 3 3 3 3 2 2 3 3 2 3 3 4 6 6 5 4 4 4 4 4 4 4 4 4 4 4 4 3 3 5 6 6 6 7 7 6 7 7 7 7 7
9 10 10 10 10 10 10 10 10 10 10 11 11 10 10 9 9 8 7 7 7 6 6 5 4 5 5 7 7 6 4 4 4 4 5 6 8 9 9 9 9 8 8 7 7 7 6 4 4 4 3 2 3 3 3 2 3 3 4 4 7 6 4 3 3 3 3 3 4 4 4 5 6 5 4 4 5 6 6 7 7 7 6 6 7 7 7 7
10 10 10 11 11 11 11 11 11 11 11 11 11 11 10 10 9 8 7 7 7 6 6 5 5 5 6 7 7 6 6 5 4 5 5 6 7 7 8 9 9 8 8 7 7 6 7 6 5 4 3 4 3 3 4 4 3 4 3 3 5 5 3 3 3 3 3 2 3 4 3 3 5 5 5 5 6 6 7 7 7 7 6 6 6 6 7 7
11 11 11 11 12 12 12 12 12 12 12 12 12 11 11 10 9 8 7 7 7 6 6 6 6 6 7 7 6 6 7 6 6 6 6 6 7 7 8 9 9 8 8 7 6 6 7 7 7 6 5 5 3 4 5 5 4 4 3 3 3 3 2 3 3 3 3 3 3 4 3 2 4 5 5 6 7 7 7 7 7 7 7 6 6 6 7 7
11 12 12 12 12 13 13 13 13 13 13 13 12 12 11 10 9 8 7 7 6 7 6 6 7 6 8 8 6 7 8 7 8 8 7 7 7 7 8 9 9 8 8 8 7 7 7 7 8 7 6 6 5 6 6 5 5 4 4 3 2 1 2 3 2 2 2 2 3 4 2 2 3 4 5 6 8 8 8 8 8 7 7 7 7 7 7 7
12 13 13 13 13 13 13 14 14 14 14 13 13 12 11 10 9 8 7 7 7 7 7 7 7 7 8 7 6 7 8 9 9 8 8 8 7 7 8 9 9 9 8 8 8 7 7 8 8 7 7 7 7 7 6 6 5 5 5 3 2 2 2 2 2 2 2 2 3 4 2 1 2 3 4 6 8 9 8 8 8 8 8 8 7 7 7 7
13 14 14 14 14 14 14 14 14 14 14 14 13 12 11 10 9 8 8 8 8 8 8 8 8 8 9 7 7 8 9 9 9 9 9 8 8 7 8 8 9 9 8 8 8 8 8 9 8 8 8 8 7 7 7 6 6 5 5 4 3 3 2 2 2 2 2 2 3 4 3 2 2 3 4 5 7 9 9 9 9 8 8 8 8 7 7 7
15 15 15 15 15 15 15 15 15 15 15 14 13 12 12 11 10 10 9 9 9 8 9 9 8 9 9 8 8 8 8 9 9 9 9 8 8 8 8 9 9 9 9 8 9 9 9 9 9 8 9 9 8 8 8 6 5 5 5 5 4 4 3 2 2 2 3 3 3 3 4 3 3 3 3 5 6 8 9 9 9 9 8 8 8 8 8 7
16 16 16 16 16 16 16 16 16 15 15 14 13 13 12 12 12 12 11 11 10 10 10 9 10 9 8 8 9 7 7 9 9 9 9 9 9 8 8 8 9 10 10 9 9 10 10 9 10 10 10 10 9 9 8 7 6 6 6 6 5 5 4 3 3 3 4 5 4 5 4 4 4 4 4 5 6 7 8 9 9 9 9 9 9 8 8 8
17 17 17 18 17 17 18 17 17 16 15 14 13 13 13 13 13 12 12 13 14 14 12 10 12 11 8 8 8 7 8 9 9 9 10 10 9 9 9 9 10 11 11 10 9 10 10 10 11 11 10 9 9 9 9 8 7 7 7 7 6 6 5 4 3 3 4 5 5 5 5 5 5 5 5 5 6 8 9 9 10 10 10 10 10 10 9 9
18 19 19 19 19 19 19 18 18 17 15 14 14 14 14 13 13 12 12 15 16 17 16 14 14 14 12 9 9 9 9 10 10 10 10 11 10 10 10 11 11 11 11 11 9 9 10 12 12 12 10 9 9 9 9 8 8 8 8 7 7 6 5 4 4 3 4 5 5 5 6 6 6 6 6 6 6 8 9 9 10 11 11 11 11 11 10 9
20 20 20 20 20 20 20 20 19 17 15 15 15 15 15 14 14 14 14 15 16 17 18 17 16 16 15 12 11 11 11 12 11 11 11 11 12 11 10 12 12 11 12 12 10 10 11 13 13 12 9 9 10 9 9 9 9 9 8 8 7 6 5 4 4 4 4 5 5 5 7 7 6 6 6 7 7 7 8 9 10 11 12 12 12 11 11 11
20 21 21 20 20 20 20 20 19 17 16 15 16 16 15 14 14 14 15 16 16 16 17 17 17 17 17 16 14 13 13 13 13 12 12 12 13 12 11 12 13 13 12 13 13 12 12 12 13 11 10 11 11 10 10 10 9 9 8 8 7 6 6 6 5 5 5 6 6 6 7 7 7 7 7 7 8 7 8 9 10 11 11 12 13 12 12 12
21 21 21 21 21 21 21 21 18 16 16 16 17 17 15 15 15 15 15 16 17 16 16 16 16 17 17 15 15 16 15 13 13 13 13 13 13 13 12 12 13 14 13 14 15 15 13 10 9 10 11 12 11 11 11 10 9 9 9 9 8 7 7 6 5 5 6 6 7 7 8 7 7 7 8 8 8 8 8 9 10 11 11 12 13 14 13 13
21 22 22 22 21 21 21 20 16 15 16 17 17 16 16 15 15 15 15 16 16 15 14 15 15 16 15 14 14 16 16 15 14 13 13 14 13 12 12 12 13 14 14 15 15 16 15 11 9 10 10 12 12 11 11 10 9 9 9 9 8 8 7 6 6 6 6 6 6 7 7 5 5 6 7 7 8 8 9 10 11 11 11 12 13 14 15 14
21 21 22 22 21 21 20 16 14 16 17 16 15 15 15 15 15 15 15 15 15 14 13 14 14 14 15 15 15 15 15 16 16 13 13 15 14 12 12 11 12 13 14 14 14 14 14 12 12 12 11 11 12 12 12 11 10 9 7 7 7 8 7 7 7 6 6 6 5 7 7 6 6 6 6 7 8 8 9 10 11 12 12 12 12 14 15 15
21 21 21 21 20 20 17 15 15 16 16 14 14 14 14 14 14 14 14 15 15 13 13 13 14 14 14 15 16 15 13 13 15 15 14 15 14 13 12 11 11 12 12 11 12 13 14 14 13 14 13 12 12 12 11 12 12 9 6 7 8 7 7 7 7 7 6 6 7 8 8 8 8 6 5 6 8 8 9 10 11 11 12 13 13 13 14 16
21 21 21 21 20 19 17 16 16 15 14 13 13 14 14 13 13 13 13 14 13 12 12 13 13 14 14 15 19 17 12 11 14 16 15 15 14 13 13 13 12 13 12 12 12 11 13 16 15 15 15 14 14 12 10 11 12 8 6 8 8 7 7 7 7 7 6 7 8 7 8 8 8 7 6 7 8 8 8 9 10 11 12 12 13 13 13 15
20 21 21 20 20 19 17 16 15 14 13 13 13 13 13 12 12 12 13 13 11 11 11 12 13 15 15 16 20 20 15 13 13 13 15 16 15 13 13 13 13 13 13 14 14 10 10 14 15 15 16 14 15 14 10 11 11 8 7 8 7 7 7 7 8 7 6 8 8 5 7 8 8 7 7 7 7 7 7 7 8 10 11 12 12 13 13 13
20 20 20 20 19 17 15 15 15 14 12 12 12 12 12 12 11 12 13 12 10 10 11 11 13 14 15 16 19 20 18 15 12 12 15 16 15 14 12 11 12 12 12 14 15 13 9 9 11 14 16 15 14 12 11 11 10 8 8 8 7 7 7 7 7 7 7 8 6 5 7 8 7 6 6 6 6 6 5 5 5 7 10 11 12 12 13 13
19 19 19 18 17 15 14 13 13 12 11 12 11 11 11 11 12 13 12 10 10 10 10 11 12 12 16 17 18 19 18 15 13 14 15 15 16 16 13 12 12 12 12 13 14 15 13 12 11 13 15 15 13 12 11 11 10 10 10 9 8 7 7 7 6 7 8 7 4 5 7 7 8 7 6 6 6 6 7 6 6 7 8 10 11 12 13 13
19 19 19 17 16 14 14 13 11 11 11 11 11 11 11 11 12 13 11 10 11 10 9 10 11 12 15 16 17 19 18 16 15 16 16 16 16 16 15 14 12 12 12 12 13 13 14 14 13 13 14 15 14 13 11 11 11 11 10 9 9 7 6 7 6 6 7 6 4 5 6 7 8 7 7 6 6 7 7 8 8 8 7 8 10 12 13 14
20 19 18 15 14 13 13 13 12 12 11 11 11 11 11 12 12 13 13 11 9 9 9 10 11 12 13 15 16 18 18 16 16 16 16 17 16 16 17 15 14 13 11 10 12 12 12 14 15 15 14 16 16 14 12 12 12 12 11 10 10 8 7 8 7 6 7 6 5 5 6 7 7 6 6 5 5 6 7 7 7 7 7 7 8 10 12 14
20 19 16 13 13 13 13 13 13 13 12 12 12 12 12 13 12 11 13 13 10 9 10 9 10 12 13 14 15 16 18 16 16 16 16 17 17 16 17 16 16 14 11 10 10 11 11 11 15 17 15 16 18 16 12 11 12 13 12 10 10 8 8 7 6 6 6 4 5 5 6 7 6 5 5 5 5 6 5 5 5 6 7 7 8 9 11 12
19 16 13 13 13 13 14 14 13 13 13 13 13 13 14 14 12 11 12 11 11 11 10 10 11 12 13 14 14 16 17 15 15 16 15 16 17 16 16 16 17 16 13 11 9 10 12 9 11 16 15 16 19 18 15 12 11 12 12 11 11 9 8 8 7 6 6 6 6 6 7 7 7 6 6 6 6 6 5 5 5 5 6 7 8 9 10 11
17 13 12 12 12 13 13 13 13 13 14 14 14 14 15 14 12 11 11 10 11 12 12 12 12 13 13 14 14 16 18 16 16 16 16 16 17 17 17 15 16 17 15 13 10 10 11 10 10 15 14 15 17 16 17 15 10 10 11 12 11 9 9 9 8 7 8 9 7 6 7 7 6 6 5 5 6 6 6 5 5 4 5 6 7 8 9 10
15 12 11 11 11 12 12 12 12 13 14 15 15 15 15 14 12 11 11 11 11 11 12 12 12 12 13 13 14 17 18 16 16 16 15 16 16 17 17 15 15 18 17 15 12 10 10 9 11 14 15 16 15 14 16 16 13 10 10 11 10 9 9 9 8 7 8 8 6 6 7 6 5 5 4 4 6 6 5 5 4 4 4 5 6 6 7 8
14 12 10 10 10 11 10 11 12 13 14 15 17 17 15 14 13 13 13 12 12 12 12 12 11 11 12 13 13 17 19 17 16 16 15 15 15 15 17 16 15 17 18 17 14 11 11 10 10 13 15 14 15 15 15 16 16 14 10 8 9 9 9 9 9 8 7 7 6 5 6 5 5 5 4 5 6 5 5 4 4 4 4 4 4 5 6 6
13 11 9 9 9 10 10 11 12 13 14 15 17 17 16 15 15 14 14 14 13 13 13 13 12 12 13 12 11 14 18 19 17 17 16 15 14 14 16 16 15 17 18 18 15 11 12 11 9 10 13 13 14 16 16 15 16 16 13 11 10 9 8 7 8 8 7 6 6 5 5 5 4 4 4 5 5 5 4 4 4 4 4 4 4 4 5 5
13 11 9 9 9 10 10 11 12 13 14 15 15 15 15 15 15 15 16 15 15 15 13 13 12 13 13 13 12 13 16 19 18 18 17 16 15 14 15 15 15 16 18 18 16 13 12 13 10 8 11 13 14 16 17 15 14 16 16 14 13 11 9 8 8 8 7 6 6 5 5 5 3 3 4 3 3 4 4 3 4 4 4 4 3 3 4 5
13 12 10 10 10 10 10 11 12 13 13 14 15 15 15 15 16 16 16 16 17 17 16 15 15 15 14 14 14 13 14 18 18 18 17 17 17 15 15 17 16 15 16 17 17 15 13 13 12 9 10 12 12 14 16 14 13 14 15 14 13 12 11 10 9 8 8 7 6 5 5 4 3 3 3 3 2 3 3 3 3 3 3 3 3 3 4 5
14 12 11 11 11 10 11 12 12 13 14 14 14 14 14 15 16 17 17 17 18 18 18 18 18 17 17 16 16 15 15 17 18 19 18 18 18 16 15 17 17 15 15 15 17 16 14 13 13 12 12 10 9 11 12 13 13 13 14 13 13 12 12 11 9 8 8 8 6 6 5 4 3 3 3 3 3 3 3 3 3 2 3 3 2 2 3 5
14 13 12 12 12 11 12 12 11 13 14 13 13 14 14 15 15 16 16 16 17 17 17 18 18 19 18 18 18 17 17 17 18 19 19 18 19 18 16 17 18 17 15 14 15 16 15 14 14 14 13 11 9 11 11 12 13 14 15 14 13 12 12 11 9 7 8 8 6 6 5 4 3 3 3 3 3 3 3 3 2 2 2 2 2 2 3 4
15 14 13 13 12 12 12 12 12 13 13 13 14 15 15 15 16 16 15 15 16 16 17 17 18 19 19 18 19 18 17 17 17 18 19 18 18 17 18 19 18 17 16 14 14 15 15 15 15 14 13 12 12 12 12 12 13 13 15 15 15 13 12 10 8 8 8 8 7 6 5 4 3 3 3 4 4 4 4 3 2 2 1 1 2 2 3 4
15 14 13 13 12 13 13 12 12 13 12 14 15 15 14 15 15 15 16 16 16 15 16 16 17 18 19 19 20 20 19 18 17 16 17 18 17 16 18 21 21 19 17 14 13 15 15 16 17 16 14 13 13 12 12 13 13 12 13 15 16 15 13 11 10 9 9 9 8 7 5 4 4 4 5 5 5 4 4 3 3 2 1 1 2 2 3 4
16 14 14 13 13 13 13 12 13 14 13 14 15 14 14 15 14 14 16 16 16 15 16 16 17 18 19 20 21 21 21 21 20 18 17 18 17 16 17 20 22 21 17 15 15 15 15 15 18 18 16 14 12 10 10 12 13 13 13 14 14 14 14 12 10 10 10 8 8 8 7 5 5 6 6 6 6 5 4 4 3 3 2 1 1 2 3 4
16 15 15 15 14 13 12 12 13 13 13 13 14 13 14 15 14 14 15 15 15 15 16 16 16 16 18 19 20 21 21 22 21 20 19 19 17 16 16 19 22 21 17 17 18 16 15 16 19 20 19 17 14 10 10 13 14 14 14 15 15 14 14 13 11 10 10 9 8 8 8 8 6 6 6 6 7 6 5 5 4 3 2 2 2 2 3 4
16 15 15 15 14 13 12 12 13 14 13 13 14 14 15 15 14 14 14 15 15 14 14 15 15 15 17 18 19 20 21 21 22 22 21 20 19 18 17 18 21 21 19 20 19 17 16 16 18 20 21 21 18 14 12 14 14 13 14 15 15 15 15 14 13 12 11 10 8 7 8 10 8 6 6 7 7 7 6 5 4 3 2 2 2 3 3 4
17 16 15 15 15 14 14 14 14 15 14 13 13 14 15 15 15 14 14 15 15 14 14 15 15 15 16 18 19 20 20 20 21 21 20 19 19 19 18 18 19 21 21 20 19 18 17 16 16 18 19 21 20 17 15 15 14 14 14 14 15 16 16 15 14 13 12 11 10 8 8 9 8 7 6 6 7 7 6 5 5 4 3 2 3 4 4 5
17 16 16 16 16 15 15 15 15 15 14 13 13 13 14 15 15 15 16 16 16 14 14 15 15 15 16 17 18 20 19 19 20 20 19 19 18 18 18 17 17 19 21 20 18 18 17 15 15 16 17 19 20 19 18 17 16 16 16 15 15 16 16 16 15 14 13 12 11 10 10 9 7 5 5 6 6 6 6 6 6 5 4 3 3 4 4 4
17 16 16 16 15 14 14 14 14 14 14 13 13 13 13 15 15 15 17 18 18 16 14 14 14 15 16 17 17 17 19 20 21 21 21 21 20 19 19 17 16 17 20 19 18 18 17 15 14 15 16 17 18 19 19 18 17 18 18 17 16 16 15 15 14 13 13 13 12 11 10 8 6 6 6 7 8 8 8 8 7 6 5 4 4 4 4 4
17 16 16 15 14 13 14 14 13 14 14 13 13 14 14 15 15 15 16 17 17 17 16 15 15 16 16 17 16 17 19 21 22 22 22 23 22 21 21 21 19 18 19 18 18 18 17 17 15 15 16 15 16 18 18 17 18 18 19 18 17 16 15 15 14 14 14 14 12 10 9 7 6 7 8 9 9 10 9 9 8 7 6 5 4 4 4 4
Wind_Direction
50 47 42 37 30 22 13 6 359 356 351 349 348 346 346 346 348 347 345 342 340 340 340 342 341 338 333 329 325 322 317 287 254 232 228 223 193 175 162 158 155 152 145 144 147 143 145 149 126 112 120 121 119 129 152 175 186 192 189 188 177 157 151 145 136 131 131 126 115 117 122 114 112 107 102 104 99 99 100 100 105 106 109 116 123 131 135 139
42 39 36 32 27 22 16 10 5 360 354 352 349 347 344 341 342 342 342 339 333 330 329 333 332 335 333 326 326 322 314 281 260 249 235 208 180 180 171 168 170 169 159 153 158 156 151 143 133 122 103 96 94 111 132 150 177 187 185 185 170 151 150 150 138 132 132 125 118 119 122 119 116 114 111 105 103 103 99 104 110 108 116 123 128 134 138 142
33 30 28 24 22 17 12 9 5 1 358 356 354 353 349 346 343 340 339 337 333 327 322 322 322 328 331 326 322 316 313 285 264 255 233 193 182 184 181 180 182 181 171 161 168 168 133 118 149 120 78 84 80 88 113 137 169 176 180 177 160 154 152 153 148 138 131 128 125 120 119 120 119 119 115 106 106 107 100 106 116 117 125 133 136 138 143 148
21 20 18 16 13 10 7 2 358 355 353 351 351 351 350 351 349 346 342 338 333 325 319 317 314 316 324 326 318 310 307 285 257 233 207 187 184 186 186 186 186 183 176 172 177 180 174 138 165 120 64 85 85 84 88 113 162 170 177 166 154 163 157 150 153 148 144 141 134 129 127 122 122 126 120 114 102 98 107 111 119 128 134 140 144 145 148 153
8 6 5 4 2 1 358 354 351 348 346 344 343 342 343 344 345 347 346 342 333 323 316 311 308 305 311 318 314 296 294 304 262 194 198 190 186 184 186 185 180 177 177 178 179 187 197 203 198 168 74 81 87 91 80 94 143 154 159 150 149 165 158 150 156 157 160 162 155 148 137 123 129 140 135 132 100 84 104 115 120 134 140 145 149 150 152 157
355 354 352 351 351 350 348 345 343 340 339 338 337 335 334 332 333 335 336 338 333 322 312 303 301 297 299 305 308 269 262 334 355 222 201 191 188 183 182 178 174 175 179 180 182 192 199 212 219 168 87 83 78 80 78 97 136 141 143 143 147 158 155 156 163 164 173 178 170 158 147 141 149 153 152 149 107 85 97 112 119 132 143 146 149 153 156 160
343 342 340 340 338 338 338 336 334 333 333 332 331 328 325 322 320 319 320 325 327 324 311 300 294 290 293 290 296 259 249 313 345 236 201 190 187 181 176 172 174 179 184 187 191 196 204 224 237 7 100 95 81 80 81 95 122 130 136 142 152 158 155 161 169 170 177 176 169 169 169 169 168 157 150 153 149 125 108 114 120 129 143 148 150 155 158 162
333 331 330 329 328 329 328 327 326 326 326 326 325 322 318 315 311 308 308 311 317 319 311 300 290 284 288 275 283 272 247 277 328 245 196 186 183 179 175 175 181 187 192 198 203 206 216 239 265 270 129 100 89 89 93 104 110 113 125 139 152 160 160 165 172 174 174 170 171 182 181 177 182 176 160 161 164 153 126 124 127 131 143 152 155 158 160 164
325 323 322 321 320 321 320 320 319 320 321 320 319 317 314 311 306 301 298 301 306 311 309 300 287 277 276 268 274 274 254 266 286 236 190 185 184 182 181 187 193 196 202 206 213 219 222 239 257 255 176 115 101 97 105 114 104 103 122 136 145 153 159 168 174 177 178 174 180 191 186 181 190 199 185 173 166 153 143 139 136 139 146 153 159 161 162 166
321 319 317 314 314 314 313 313 313 314 315 314 313 313 311 308 303 297 292 292 295 301 302 296 288 273 267 265 261 260 267 271 252 216 193 188 188 191 194 200 201 204 210 211 218 222 225 235 232 240 212 164 119 114 120 114 105 110 127 133 136 140 145 161 168 172 181 180 191 203 193 182 190 205 192 169 168 162 159 153 148 148 150 154 159 163 165 168
319 317 315 312 310 309 308 308 308 309 310 310 309 309 308 304 300 295 287 284 286 290 291 289 284 270 266 264 256 254 269 268 241 219 206 193 192 200 205 208 208 211 213 214 221 223 225 227 231 236 211 194 173 150 136 125 126 125 135 135 131 128 127 148 158 164 182 183 189 204 205 199 198 207 197 171 171 171 167 160 158 156 151 154 158 161 168 169
318 317 314 312 310 308 306 305 304 304 306 305 305 306 304 300 297 293 284 278 278 280 281 280 275 272 269 261 253 255 262 257 240 224 214 202 200 207 214 214 214 217 218 221 222 221 225 225 234 239 222 229 212 178 163 163 164 149 159 156 141 135 129 152 157 160 187 182 179 199 214 215 209 208 200 183 176 173 170 163 162 161 155 155 156 159 166 168
317 315 314 311 309 307 305 304 303 302 302 302 303 303 300 298 295 290 281 273 271 272 272 271 272 274 270 259 251 253 255 249 235 222 217 213 209 213 218 217 218 222 227 230 225 219 225 227 234 239 231 235 212 188 192 182 182 173 176 183 163 152 137 156 162 165 185 163 171 202 214 205 197 196 193 192 187 176 173 170 167 164 161 160 158 160 162 166
314 313 312 310 307 306 304 303 302 301 300 300 301 300 298 296 293 287 278 270 266 264 264 267 273 275 268 263 258 253 248 242 231 220 218 218 215 217 218 218 220 224 228 230 226 222 225 226 232 237 229 230 217 201 204 193 195 198 192 190 183 169 135 147 159 166 172 150 171 209 215 172 178 185 188 197 194 183 178 176 173 169 167 167 163 164 163 167
310 310 309 308 307 304 302 301 301 300 299 299 298 297 296 293 290 284 274 267 262 259 260 266 271 274 270 264 259 252 243 238 231 222 220 219 219 220 217 217 218 221 226 228 225 222 222 223 230 233 221 221 224 214 210 207 205 209 208 191 187 189 150 150 170 184 175 147 172 206 211 168 181 188 186 197 198 193 190 182 180 177 174 173 170 170 170 170
307 306 305 305 305 304 302 299 298 298 297 297 295 293 290 288 287 280 272 265 259 257 261 268 267 269 274 266 254 250 241 235 231 223 221 222 226 226 217 214 217 218 223 228 228 224 222 225 232 235 228 223 221 216 217 219 210 209 216 209 213 244 209 188 197 198 196 166 179 204 224 199 186 189 184 195 202 201 199 191 188 186 181 181 178 177 179 178
305 304 304 303 303 302 301 298 296 295 294 293 291 288 284 282 281 277 271 263 259 260 263 271 269 265 271 266 256 251 239 233 229 222 221 225 230 228 217 216 219 216 218 225 229 226 224 227 229 230 229 223 219 221 221 216 208 207 219 221 224 252 259 241 223 205 208 219 209 210 231 237 203 195 189 195 205 206 204 199 195 193 190 189 187 185 187 189
304 303 302 302 301 301 299 297 295 293 291 288 284 280 278 277 276 274 268 262 261 263 264 266 263 265 266 254 251 251 237 228 225 221 222 225 227 227 224 223 219 213 216 225 227 225 223 225 228 228 225 221 220 221 217 214 219 223 230 235 237 248 251 260 268 230 222 239 239 226 232 236 220 211 198 189 200 207 206 207 204 199 197 196 196 195 193 195
302 301 301 300 300 299 298 297 295 292 289 284 278 274 273 272 272 270 265 260 257 259 266 256 245 262 273 248 244 252 239 224 220 221 221 223 225 227 228 224 217 215 219 224 224 223 223 225 227 229 226 223 221 220 224 235 242 243 245 248 256 258 250 265 276 243 241 254 252 245 245 242 228 220 211 191 192 203 207 213 213 204 201 202 203 204 201 200
299 299 298 298 298 297 297 295 294 292 286 278 273 270 268 267 267 265 260 257 255 258 268 256 243 257 269 250 242 244 233 222 222 224 221 221 221 222 226 223 220 223 225 225 225 223 226 230 227 226 228 226 225 227 236 244 241 243 247 246 253 257 253 261 261 243 251 257 251 250 254 253 241 230 224 207 196 203 210 215 215 209 207 209 210 209 207 206
298 297 297 297 296 296 295 293 292 289 281 274 271 268 270 271 268 268 265 260 256 256 261 258 251 255 257 251 244 239 230 225 227 226 220 221 221 224 227 224 225 228 226 226 228 225 228 232 228 229 232 229 229 234 237 237 238 241 243 245 249 251 254 261 257 252 252 251 248 254 260 255 245 236 229 217 208 210 212 214 216 213 213 215 215 212 210 211
299 298 297 296 296 296 294 293 291 285 276 271 269 267 271 272 271 272 271 267 261 256 256 256 255 255 251 248 245 241 236 228 225 224 222 221 222 227 228 226 229 230 224 224 228 230 231 233 232 231 231 229 232 236 234 234 238 238 237 241 243 245 252 252 251 254 246 247 254 261 264 256 244 238 232 223 221 222 218 217 218 217 217 219 218 215 212 213
300 299 298 297 297 296 295 293 290 280 271 269 269 268 268 268 269 270 269 269 266 257 253 252 250 249 246 244 241 239 237 229 225 225 222 222 225 228 230 229 231 230 226 224 227 231 233 234 234 229 224 228 231 230 231 234 234 234 234 237 241 248 256 252 250 252 245 252 266 270 266 258 245 239 237 231 229 231 228 225 224 223 223 222 222 220 216 214
299 299 297 297 296 295 295 294 286 274 269 270 269 266 265 265 268 270 268 268 266 258 253 251 249 247 242 240 236 232 234 234 230 226 221 223 227 229 233 232 230 231 230 227 228 231 235 236 230 223 223 228 229 226 227 232 233 232 232 236 246 257 260 257 253 248 246 250 259 267 265 254 244 242 241 232 227 231 230 229 230 229 228 227 226 224 220 216
298 298 298 297 296 295 296 291 279 272 274 273 269 263 261 264 267 269 269 268 265 258 253 249 248 246 238 234 231 228 233 236 234 227 220 224 227 228 234 233 230 231 230 229 229 232 234 229 217 219 222 223 225 227 226 228 234 233 227 231 246 259 259 253 246 245 251 249 248 261 261 246 242 247 241 229 227 231 228 228 232 231 230 231 230 225 220 218
298 298 298 298 297 297 295 286 277 279 279 273 268 261 259 264 265 266 267 268 264 257 250 245 244 241 233 230 226 225 234 237 234 230 222 225 228 230 233 230 231 234 231 228 230 232 232 225 219 221 223 221 224 229 227 225 231 231 223 229 244 256 257 248 244 251 259 257 248 253 258 253 252 252 239 232 235 235 230 231 233 231 229 229 230 226 220 219
297 297 297 297 298 297 293 286 283 282 277 271 266 260 260 263 263 263 265 265 260 254 249 245 243 239 234 228 219 222 236 234 228 228 224 225 227 230 235 229 230 236 231 226 230 232 229 225 223 224 227 228 225 226 223 221 227 229 227 238 244 252 253 245 247 255 262 263 251 244 251 259 258 252 245 241 242 240 237 236 234 232 230 228 228 226 222 219
296 296 296 295 295 293 288 285 285 281 274 270 264 259 261 261 258 259 263 263 257 252 250 245 243 240 237 228 218 224 237 229 227 228 222 223 225 227 234 231 231 232 223 224 229 227 225 226 225 224 227 229 226 227 223 219 227 234 236 240 242 246 246 243 250 257 264 266 254 236 240 255 256 247 244 247 248 248 246 240 233 231 229 227 226 225 224 220
295 295 295 294 292 289 285 282 280 277 273 268 263 260 259 256 254 257 261 261 255 252 252 244 240 238 233 227 223 226 233 232 235 228 216 221 226 228 234 233 233 229 221 226 230 228 227 229 228 224 224 226 226 228 225 223 230 233 230 233 233 238 241 244 252 258 260 262 258 239 239 257 264 249 240 245 252 254 247 238 232 229 228 228 227 225 225 222
296 294 294 293 290 285 283 280 275 273 270 265 262 259 254 250 252 254 253 256 256 254 251 241 238 234 226 224 224 225 228 231 231 221 215 219 222 226 234 233 232 231 227 229 232 234 233 228 226 224 223 224 224 221 220 226 231 225 222 224 225 234 243 248 255 259 257 256 255 249 249 259 266 259 247 246 253 256 245 237 236 233 229 230 230 228 226 224
298 295 293 290 286 282 281 279 274 270 265 263 260 252 247 248 253 254 250 255 258 252 245 238 234 231 224 222 223 221 224 228 222 216 217 219 218 221 225 226 228 230 231 232 233 233 231 225 223 221 220 219 217 213 215 223 225 223 223 222 225 232 240 247 250 253 257 255 249 251 253 256 259 263 264 255 250 251 247 249 256 249 235 230 232 232 230 227
300 296 293 286 281 278 276 276 274 267 261 262 256 245 244 248 249 251 251 255 255 248 246 240 232 230 225 223 223 218 219 224 221 218 218 217 217 219 219 220 219 221 229 231 228 228 227 225 220 216 215 213 212 211 212 215 219 221 220 220 227 229 235 247 244 245 255 253 245 250 253 257 261 264 267 261 254 253 255 259 261 256 246 236 233 234 232 230
302 298 292 282 276 274 273 273 268 262 260 260 252 242 244 250 249 249 248 249 253 252 251 244 234 230 225 223 223 217 216 220 219 219 219 216 217 218 218 220 218 221 231 229 221 220 221 219 216 215 212 209 210 209 206 209 214 217 215 216 225 232 242 251 247 249 256 248 241 249 253 260 263 262 262 261 262 266 262 257 253 251 250 248 242 238 233 229
305 298 289 280 275 273 273 272 263 257 257 254 248 241 242 248 251 252 248 247 252 253 249 243 236 232 226 225 222 213 214 218 216 217 218 215 218 219 217 220 219 222 230 225 220 219 218 216 213 212 211 206 208 210 210 210 211 214 218 222 231 240 251 258 256 256 256 244 238 243 248 258 263 257 255 258 261 264 259 246 243 246 251 253 250 245 239 231
308 299 287 279 276 274 274 271 260 252 251 248 245 242 242 247 252 253 251 249 251 250 246 244 239 234 228 226 223 214 214 218 214 216 219 217 219 219 217 219 218 219 225 224 223 220 224 230 211 206 207 203 204 210 214 217 217 214 218 228 235 241 247 255 262 266 272 268 251 242 248 259 267 263 252 253 253 247 242 237 240 248 253 257 255 249 245 236
310 300 288 281 277 276 275 269 257 247 246 246 244 244 246 251 255 254 252 253 252 250 249 245 237 234 229 225 223 217 216 220 215 215 221 220 221 222 220 221 217 216 220 221 219 216 224 230 203 198 207 206 206 210 210 215 218 210 216 227 232 240 249 252 253 256 264 267 256 248 254 258 262 259 248 252 246 227 226 237 243 258 265 264 260 252 248 241
311 302 293 287 282 280 276 266 255 246 246 247 247 248 251 252 254 254 252 253 252 249 248 243 234 233 232 227 224 215 212 216 215 215 220 220 222 222 221 221 218 217 218 219 223 222 224 223 201 201 211 208 209 213 210 214 217 212 220 225 222 232 246 248 249 248 251 256 255 255 260 261 258 252 248 261 249 221 220 243 253 265 273 273 267 253 248 242
312 302 295 293 287 282 277 265 255 249 249 249 249 252 253 252 253 252 251 251 250 246 245 242 236 235 234 231 226 215 211 214 214 215 219 218 219 219 217 219 219 218 218 219 223 221 221 223 206 205 213 207 206 214 213 214 218 222 229 223 216 229 234 229 239 250 251 255 258 253 256 260 256 247 239 249 247 225 220 245 262 271 280 290 279 250 239 235
311 301 296 297 289 284 279 267 257 253 251 251 251 252 253 252 252 252 251 249 247 245 243 241 238 234 232 233 231 218 213 215 216 217 220 218 216 215 215 217 217 217 216 216 219 217 216 222 212 205 211 207 207 213 214 211 214 222 231 228 225 236 237 226 234 245 251 259 259 250 248 248 245 251 248 237 232 227 226 243 267 280 290 298 293 252 228 221
311 302 298 298 290 287 280 266 258 255 253 254 255 255 254 252 252 251 249 247 246 244 243 242 238 233 233 235 235 227 220 220 220 220 220 217 214 216 215 215 216 217 214 213 217 217 213 217 216 201 200 206 209 210 212 211 209 215 223 226 226 229 235 237 237 240 249 257 254 249 252 245 231 251 259 235 217 224 232 245 263 283 297 300 300 263 227 210
310 302 301 299 292 288 281 266 260 258 257 258 258 257 255 255 255 253 249 246 245 244 243 245 242 238 238 236 233 231 226 225 223 222 222 218 218 222 218 215 216 214 211 211 215 216 212 212 217 207 197 203 206 204 212 219 218 216 217 221 225 225 228 232 232 232 239 247 252 253 250 234 219 239 248 235 231 233 236 251 263 282 294 293 291 263 229 210
310 304 304 300 292 288 281 270 265 263 260 262 262 259 258 257 255 254 252 248 245 244 242 244 243 240 239 237 236 236 233 230 225 223 224 222 221 223 217 213 213 208 207 212 212 212 212 213 217 214 206 202 196 197 212 223 225 224 221 222 227 224 222 228 231 229 228 235 247 253 247 227 216 238 242 233 242 247 245 258 272 278 281 279 271 248 225 215
312 308 305 299 291 285 280 273 270 265 261 264 265 261 259 256 253 253 252 248 246 244 242 242 242 239 237 236 238 238 235 234 230 226 226 226 224 223 217 211 210 208 209 213 209 206 210 214 215 216 216 216 210 208 216 221 222 225 224 223 225 220 219 227 233 230 225 226 229 233 236 225 212 225 236 231 234 245 249 258 270 264 262 267 254 225 213 213
312 307 303 299 291 282 279 277 273 268 264 265 264 260 258 256 254 253 251 248 245 244 243 243 241 238 236 235 236 236 233 232 231 228 227 227 224 222 219 212 210 211 212 213 208 204 208 211 211 213 215 216 216 215 216 215 216 220 218 217 220 219 218 221 224 224 224 223 222 226 231 224 214 218 224 223 227 234 238 247 261 259 238 244 242 219 207 204
309 304 301 299 292 283 280 281 278 272 269 267 263 262 259 255 253 252 251 250 247 245 245 244 241 239 237 236 235 234 232 231 230 229 228 226 222 220 220 215 212 214 215 213 210 207 209 211 209 211 212 211 212 215 213 209 209 213 212 211 215 219 217 216 218 220 222 220 221 231 235 221 213 219 217 215 221 231 232 234 246 251 226 220 227 216 208 204
309 305 302 298 292 286 281 280 277 273 272 269 264 262 260 256 253 250 250 249 245 245 247 246 244 241 237 235 234 233 231 230 231 230 227 226 222 219 217 215 214 214 211 210 211 212 215 214 212 215 220 217 213 211 209 205 204 207 208 207 212 216 215 215 219 222 224 223 222 228 234 228 214 215 218 220 221 224 228 228 230 233 225 213 220 219 214 212
309 306 305 300 293 287 280 279 277 273 271 269 265 263 260 257 257 251 247 246 244 246 249 244 241 241 237 234 234 232 230 228 228 229 227 226 225 220 215 216 215 212 208 211 215 216 218 219 216 219 224 226 223 217 209 209 209 209 209 209 211 213 213 215 219 218 217 223 224 223 232 239 231 218 220 229 229 224 225 226 224 226 229 224 226 227 224 222
312 307 305 300 292 287 283 282 282 276 270 266 264 264 260 258 258 254 249 249 247 247 246 239 237 242 242 237 234 232 230 227 225 226 226 224 224 220 214 214 213 210 210 214 216 216 220 221 218 219 222 227 229 226 217 216 217 216 216 215 213 213 214 216 220 217 214 223 230 226 232 238 238 235 232 230 231 229 223 220 220 222 227 233 234 235 237 234
315 307 305 299 291 287 285 283 281 277 271 267 264 262 260 259 259 255 253 251 247 245 245 242 241 246 245 239 234 230 229 228 224 222 222 223 223 219 213 211 210 209 211 213 213 215 221 222 220 220 223 225 226 224 221 221 222 220 221 220 217 216 218 222 226 224 221 227 231 228 234 237 235 244 246 230 225 226 218 213 217 218 221 235 245 244 244 243
316 309 306 299 291 286 284 280 277 274 271 267 263 262 261 259 259 258 254 251 248 245 245 247 249 250 246 238 232 228 228 229 226 223 223 224 222 217 213 212 211 208 209 212 212 213 218 220 219 220 224 226 224 222 223 224 226 224 223 222 221 221 222 226 231 229 225 228 229 228 238 243 236 240 246 232 225 223 217 213 218 223 225 234 249 251 244 243
317 311 307 300 293 289 285 279 275 273 271 267 265 265 262 258 260 263 257 249 248 247 246 250 252 249 243 235 230 231 232 232 230 229 229 227 223 219 216 218 218 211 209 212 213 213 216 219 218 218 223 224 221 220 222 223 226 228 224 221 220 221 223 226 229 228 226 226 227 229 239 246 241 236 239 234 227 223 220 218 219 224 228 232 244 250 243 241
319 314 309 303 296 290 286 281 276 273 271 270 270 269 265 261 261 263 256 247 244 243 244 251 253 245 238 234 235 240 242 238 234 232 230 227 225 223 221 224 226 220 214 213 214 214 215 218 217 217 222 221 216 217 219 217 221 226 224 219 218 220 224 226 226 226 225 224 226 230 235 240 240 237 235 232 227 224 223 222 222 222 225 233 241 246 247 243